ONEWEB-0293, 49082

Orbit data source: Space-Track

ONEWEB-0293, 49082 is a payload satellite owned by One Web (NAA) (UK) in LEO that was launched on Sat, 21 Aug 2021 UTC via a SOYUZ-2-1B launch vehicle from the Tyuratam Missile And Space Complex (TTMTR). Payload-class satellites include a variety of spacecraft equipped with specific instruments for various scientific and technological missions. These include communications satellites like Starlink; space stations such as the ISS; scientific satellites like the Hubble; Earth observation satellites from companies like Planet Labs, Umbra, and HawkEye 360; GPS; miniature CubeSats for education and research; and military/defense satellites.

Loading next visibility...
Identifier
49082, 2021-075H
Orbit
LEO
Country
Flag of UKUK
Related business
Manufacturer
One Web
Mission
Operational Commercial Communications
Bus & Motor
ARROW, Unknown motor
Mass
148 kg wet, ~140 kg dry
Launch date (UTC)
2021-08-21 (5 years ago)
Launch vehicle
SOYUZ-2-1B
Launch site
Tyuratam Missile And Space Complex (TTMTR)
Object type
Payload
Rocket body
Debris
Shape & HBR
Trap Box + 2 Pan, 6.7 m
Radar Cross Section
3.464 m², Large (>1 m²)

Expand to show TLE details & history
Last TLE update: 9 hours ago

TLE from 9 hours ago
0 ONEWEB-0293
1 49082U 21075H   26130.14456681  .00000001  00000-0 -30107-4 0  9992
2 49082  87.9170  13.4281 0001662  80.6806 279.4514 13.17648657228629
Epoch: 2026-05-10T03:28Z
TLE epoch observation values (Epoch: 2026-05-10T03:28:10.572Z)
Latitude
0.00004°
Longitude
93.43219°
Altitude
1,196.407 km
Speed
7.256 km/s
True Right ascension
00h 53m 42s
True Declination
0° 00' 00"
Sunlit
Object was in daylight at epoch
Visualization orbit readout
Latitude
Unknown
Longitude
Unknown
Altitude
Unknown
Speed
Unknown
Apparent Right ascension
Unknown
Apparent Declination
Unknown
Sunlit
N/A
Visualization observer readout
Local Sidereal Time
20:36:01
Azimuth
Unknown
Elevation
Unknown
Doppler factor
Unknown
Orbital elements
Apogee altitude
1,192.081 km
Perigee altitude
1,189.565 km
Semi-major axis
7,568.96 km
Eccentricity
0.00017
Inclination
87.917°
RAAN
13.4281°
Arg. of periapsis
80.6806°
True anomaly
279.43261°
Mean anomaly
279.4514°
Eccentric anomaly
279.44201°
Mean motion
3.29601 °/min
Orbital period
109.22 mins
BSTAR
-0.000030107
Loading maneuver chart data...
Computing Atmospheric mass density...
Loading historical data...
Loading historical data...
Loading historical data...
Loading historical data...
Loading historical data...
Loading historical data...
Loading historical data...

Documentation

Showing up to 5 results
|